ANIK F1R 1 28868U 05036A 21110.48325498 -.00000074 00000-0 00000+0 0 9995 2 28868 0.0459 65.8025 0003103 325.5822 244.0744 1.00272014 57264 BREEZE-M R/B 1 28869U 05036B 21109.75216800 -.00000229 00000-0 00000+0 0 9992 2 28869 9.3453 211.0417 6261157 157.4360 250.6307 2.10741171120212 BREEZE-M DEB [TANK] 1 28870U 05036C 21109.91450856 .00000384 00000-0 21744-3 0 9996 2 28870 49.4395 6.6295 5435061 111.6406 313.0416 4.85094043306983